sat.trackr.live / text

‹ back to catalog

STARLINK-36686

NORAD 68719 · 2026-081W

PAYLOAD ACTIVE UNKNOWN

§ Identity

Operator
Country
US
Launch date
2026-04-14
Launch site
AFETR
Launch vehicle
Mass (kg)
RCS (m²)

Purposes: comms

External: N2YO · Heavens-Above · Gunter

§ Orbital elements

Epoch: 2026-09-19T11:29:09.861504Z

Period
93.85 min
Inclination
53.1571°
Eccentricity
0.0001185
Mean motion
15.34405218 rev/d
Perigee alt
461.9 km
Apogee alt
463.5 km
Semi-major
6,840.8 km
B*
6.2089e-4
RAAN
210.3482°
Arg perigee
84.3888°
Mean anomaly
275.7250°
Rev number
2,446

§ Raw data

STARLINK-366861 68719U 26081W   26262.47858636  .00020663  00000+0  62089-3 0  99972 68719  53.1571 210.3482 0001185  84.3888 275.7250 15.34405218 24466

JSON: /api/v1/satellites/68719 · /tle

For live sub-satellite position, see the globe view (requires WebGL).

§ Visibility from observer

Set your observer location to see the next 7 days of passes ≥ 10°. The values pass through the URL so the page stays shareable.

No JS? Fill the form by hand. The geolocation button needs JavaScript.